Location: Waco, TX
(31.5480°N, 97.1670°W)
Time: 05:45:09
(UTC-06:00)

ISS - All Passes

Search period start: 23 February 2017 00:00
Search period end: 05 March 2017 00:00
Orbit: 399 x 408 km, 51.6° (Epoch: 23 February)

Date Brightness Start Highest point End Pass type
(mag) Time Alt. Az. Time Alt. Az. Time Alt. Az.
23 Feb - 08:38:34 10° SW 08:41:48 59° NW 08:45:04 10° NE daylight
23 Feb - 15:11:15 10° N 15:13:09 14° NNE 15:15:03 10° ENE daylight
23 Feb - 16:46:38 10° WNW 16:49:48 46° SW 16:52:55 10° SSE daylight
24 Feb - 07:46:06 10° SSW 07:49:19 57° SE 07:52:34 10° NE daylight
24 Feb - 09:24:25 10° WNW 09:26:02 13° NNW 09:27:39 10° N daylight
24 Feb - 15:54:03 10° NW 15:57:20 72° NE 16:00:34 10° SE daylight
25 Feb - 06:54:12 10° S 06:56:55 24° SE 06:59:38 10° ENE daylight
25 Feb - 08:30:38 10° W 08:33:18 22° NW 08:35:59 10° NNE daylight
25 Feb - 15:01:46 10° NNW 15:04:45 32° NE 15:07:43 10° ESE daylight
25 Feb - 16:38:56 10° W 16:40:59 16° SW 16:43:02 10° SSW daylight
26 Feb - 06:03:33 10° SE 06:04:34 11° SE 06:05:34 10° ESE visible
26 Feb - 07:37:31 10° WSW 07:40:40 45° NW 07:43:51 10° NNE daylight
26 Feb - 14:09:47 10° N 14:12:04 17° NE 14:14:20 10° E daylight
26 Feb - 15:45:36 10° WNW 15:48:36 34° SW 15:51:36 10° SSE daylight
27 Feb - 06:44:51 10° SW 06:48:07 77° SE 06:51:24 10° NE daylight
27 Feb - 08:23:59 10° NW 08:24:56 11° NNW 08:25:53 10° NNW daylight
27 Feb - 13:18:56 10° NNE 13:19:16 10° NNE 13:19:37 10° NE daylight
27 Feb - 14:52:51 10° NW 14:56:08 86° SW 14:59:23 10° SE daylight
28 Feb - 05:52:42 10° SSW 05:55:39 31° SE 05:58:36 10° ENE visible
28 Feb - 07:29:43 10° W 07:32:08 19° NW 07:34:33 10° NNE daylight
28 Feb - 14:00:25 10° NNW 14:03:33 40° NE 14:06:39 10° ESE daylight
28 Feb - 15:38:17 10° W 15:39:41 12° SW 15:41:05 10° SSW daylight
01 Mar - 05:01:23 10° SSE 05:03:14 14° SE 05:05:05 10° E visible
01 Mar - 06:36:23 10° WSW 06:39:26 35° NW 06:42:30 10° NNE daylight
01 Mar - 13:08:17 10° NNW 13:10:52 21° NE 13:13:25 10° E daylight
01 Mar - 14:44:28 10° WNW 14:47:17 27° SW 14:50:05 10° S daylight
02 Mar - 05:43:32 10° SW 05:46:48 81° NW 05:50:06 10° NE visible
02 Mar - 12:16:41 10° N 12:18:03 12° NNE 12:19:24 10° ENE daylight
02 Mar - 13:51:33 10° NW 13:54:48 64° SW 13:58:02 10° SE daylight
03 Mar - 04:51:10 10° SSW 04:54:16 41° SE 04:57:24 10° ENE visible
03 Mar - 06:28:46 10° WNW 06:30:51 16° NW 06:32:57 10° N visible
03 Mar - 12:58:59 10° NW 13:02:12 52° NE 13:05:24 10° ESE daylight
04 Mar - 03:59:28 10° S 04:01:48 18° SE 04:04:08 10° E visible
04 Mar - 05:35:11 10° WSW 05:38:05 28° NW 05:40:59 10° NNE visible
04 Mar - 12:06:43 10° NNW 12:09:31 25° NE 12:12:17 10° E daylight
04 Mar - 13:43:18 10° WNW 13:45:51 21° SW 13:48:22 10° S daylight
